SCP
0 0 0 0 0 0 0 0 -0 0 -0 -0 -0 -0 0 -0 0 -0 0 -0 -0 -0 -0 -0 -0 -0 -0 -0 -0 -0 -0 -0 -0 -0 -0 0 0 0 0 0 -0 -0 -0 -0 -0 -0 -0 -0 -0
0 0 0 0 0 0 0 0 -0 0 0 -0 -0 -0 -0 -0 -0 -0 0 -0 -0 -0 -0 -0 -0 -0 -0 -0 -0 -0 -0 -0 -0 0 0 0 0 0 -0 -0 -0 -0 -0 -0 -0 -0 -0 -0 -0
-0 0 0 0 0 0 0 0 -0 -0 0 -0 -0 -0 -0 -0 -0 0 -0 -0 -0 -0 -0 -0 -0 -0 -0 -0 -0 -0 -0 -0 0 0 0 0 -0 -0 -0 -0 -0 -0 -0 -0 -0 -0 -0 -0 -0
-0 0 0 0 0 0 0 0 0 0 -0 -0 -0 -0 -0 0 0 -0 -0 -0 -0 -0 -0 -0 -0 -0 -0 -0 -0 -0 -0 0 0 0 0 -0 -0 -0 -0 -0 -0 -0 -0 -0 -0 -0 -0 -0 -0
0 -0 0 -0 0 0 -0 -0 0 0 -0 -0 -0 -0 -0 -0 -0 -0 -0 -0 -0 -0 -0 -0 -0 -0 -0 -0 -0 -0 -0 0 0 -0 -0 -0 -0 -0 -0 -0 -0 -0 -0 -0 -0 -0 -0 -0 -0
0 0 0 0 0 0 -0 -0 -0 0 -0 -0 -0 -0 0 -0 -0 -0 -0 -0 -0 -0 0 0 -0 0 0 0 0 0 -0 -0 -0 -0 -0 -0 -0 -0 -0 -0 -0 -0 -0 -0 -0 -0 0 -0 -0
0 0 0 0 -0 0 0 -0 -0 0 0 0 -0 0 0 0 0 0 -0 -0 -0 -0 0 0 0 0 0 0 0 -0 -0 -0 -0 -0 -0 -0 -0 -0 -0 -0 -0 -0 -0 -0 0 0 -0 0 -0
0 0 0 -0 0 -0 -0 -0 -0 -0 -0 -0 -0 0 0 -0 0 0 -0 -0 -0 -0 -0 0 0 0 0 -0 -0 -0 -0 -0 -0 -0 -0 -0 -0 -0 0 0 -0 -0 0 0 -0 -0 -0 -0 0
0 0 0 0 0 -0 -0 -0 0 -0 -0 0 0 0 -0 -0 -0 -0 -0 -0 -0 -0 -0 0 0 0 -0 -0 -0 -0 -0 -0 -0 -0 -0 -0 -0 -0 -0 0 -0 0 0 0 -0 -0 -1 -1 -0
0 0 0 -0 -0 0 -0 -0 0 0 -0 -0 -0 0 -0 -0 -0 0 0 -0 -0 -0 -0 0 0 -0 -0 -0 -0 -0 -0 -0 -0 -0 -0 -0 -0 -0 -0 0 0 0 -0 -0 -0 -0 -0 -0 -0
0 0 0 0 0 0 -0 0 0 0 0 0 -0 -0 -0 0 0 0 0 0 -0 -0 -0 -0 -0 -0 -0 -0 -0 -0 -0 -0 -0 0 -0 -0 -0 -0 0 0 -0 -0 -0 -0 -0 -0 -0 -0 -0
0 0 0 0 0 0 0 0 0 0 0 0 -0 -0 -0 -0 0 0 -0 0 0 -0 -0 -0 -0 -0 0 0 -0 -0 -0 -0 -0 -0 -0 -0 -0 0 0 0 0 -0 -0 -0 -0 -0 0 0 -0
0 -0 0 -0 0 -0 0 0 0 0 -0 -0 -0 -0 0 0 0 0 -0 -0 0 -0 -0 -0 -0 -0 -0 -0 0 -0 0 0 0 -0 -0 -0 0 0 0 0 0 -0 -0 -0 0 0 0 0 0
0 -0 0 -0 0 0 0 0 -0 0 -0 -0 -0 0 0 -0 0 -0 0 0 0 0 -0 -0 -0 -0 -0 -0 -0 0 0 0 -0 -0 -0 0 0 0 0 0 -0 -0 -0 -0 0 0 0 0 0
0 0 0 0 0 0 -0 0 0 0 -0 0 0 -0 0 -0 -0 -0 -0 -0 -0 -0 0 -0 -0 -0 -0 -0 -0 0 -0 0 0 0 -0 0 -0 0 0 -0 -0 -0 -0 0 0 0 0 0 0
0 0 0 -0 0 -0 -0 0 -0 0 0 0 0 0 0 -0 -0 -0 0 -0 -0 -0 -0 -0 -0 -0 -0 -0 0 0 0 0 0 0 0 0 0 -0 0 0 -0 -0 0 0 0 0 0 0 0
0 -0 0 -0 -0 -0 0 0 0 -0 0 0 0 0 0 0 -0 0 0 -0 -0 -0 -0 -0 -0 -0 0 0 0 0 0 0 0 0 0 -0 0 0 0 0 0 0 0 0 0 0 0 0 0
0 -0 0 -0 -0 0 0 0 0 0 0 0 0 0 0 0 0 -0 0 0 -0 -0 -0 -0 0 0 0 0 0 0 0 -0 0 0 0 0 0 0 0 0 0 0 0 0 0 0 0 0 0
0 0 0 0 0 0 0 0 0 0 0 0 0 0 0 0 0 0 0 -0 0 0 0 0 0 0 0 0 0 0 0 0 -0 0 0 -0 0 0 0 0 0 0 0 0 0 0 0 0 0
0 0 0 0 0 0 0 0 0 0 0 0 0 0 0 0 0 0 0 0 -0 0 0 0 0 0 0 0 0 0 0 0 0 0 0 0 0 0 -0 0 0 0 0 0 0 0 0 0 0
0 0 0 0 0 0 0 0 0 0 -0 -0 -0 0 0 0 0 0 0 0 0 0 0 0 0 0 0 0 0 0 0 0 0 0 0 0 1 0 1 1 0 1 1 0 0 0 0 0 0
0 -0 0 0 0 0 0 -0 -0 0 -0 -0 -0 0 0 0 0 1 0 0 0 0 0 0 0 0 0 0 0 0 0 0 0 0 1 0 1 2 3 2 1 1 1 1 0 0 0 0 0
0 -0 0 0 0 0 -0 0 0 -0 0 -0 0 0 0 0 0 0 0 1 1 1 0 0 0 0 0 0 1 1 1 1 1 1 1 1 1 3 5 4 4 2 2 1 0 0 0 0 0
0 0 0 0 0 -0 -0 -0 -0 0 -0 0 0 0 0 0 0 0 0 1 2 2 2 1 0 0 0 1 0 0 1 1 1 1 1 1 2 5 4 5 6 4 3 2 1 0 0 0 0
0 0 0 0 0 0 0 0 -0 -0 -0 0 0 0 0 0 0 0 0 1 1 1 1 2 3 1 1 1 1 1 0 0 1 0 0 1 2 5 5 6 7 6 4 3 1 0 0 0 0
0 0 0 0 0 0 -0 0 0 0 0 0 0 0 0 0 0 0 0 0 0 0 0 0 0 2 2 2 2 2 2 1 0 1 1 1 1 2 5 8 8 7 5 4 2 1 0 0 0
0 0 -0 0 0 0 0 0 0 0 0 0 0 0 0 0 0 0 0 0 0 0 0 0 0 0 0 0 0 0 3 3 2 1 1 1 0 1 2 5 9 8 7 5 2 1 1 0 0
0 0 0 0 -0 0 0 0 0 0 0 0 0 0 0 0 0 0 0 0 0 0 0 0 0 0 0 0 0 0 0 0 1 1 1 1 1 1 0 4 7 9 6 4 2 1 1 0 0
0 0 0 0 0 0 0 0 0 0 0 0 0 0 0 0 0 0 0 0 0 0 0 0 0 0 0 0 0 0 0 0 0 0 1 2 2 2 2 2 1 4 6 6 4 2 1 0 0
0 0 0 0 0 0 0 0 0 0 0 0 0 0 0 0 0 0 0 0 0 0 0 0 0 0 0 0 -0 0 0 0 0 0 0 0 0 2 3 3 3 3 4 6 5 2 1 0 0
Wind_Speed_500mb
9 13 9 5 7 8 8 16 13 20 18 40 52 46 31 26 11 13 54 47 36 45 48 43 37 33 30 30 32 32 31 28 27 28 31 32 31 29 28 27 26 25 23 22 21 21 22 24 22
21 14 9 6 8 6 11 12 22 16 25 29 50 61 50 28 46 61 58 41 35 37 48 44 38 32 30 30 32 33 32 30 28 30 33 32 30 26 25 23 22 21 20 19 18 18 18 19 19
19 8 8 8 4 7 9 14 17 21 28 45 15 41 16 34 48 25 39 37 28 42 46 43 38 32 31 31 33 35 33 32 31 32 35 32 27 23 21 21 20 19 18 17 16 15 14 19 19
18 11 6 6 15 23 19 25 17 19 32 53 51 18 35 33 36 45 48 34 22 49 47 42 38 34 32 33 35 36 35 33 33 36 35 29 23 22 21 22 23 22 20 19 17 16 17 22 20
12 10 6 5 21 27 30 44 32 17 40 60 51 16 18 33 47 50 35 17 24 44 36 37 36 34 33 34 36 37 36 35 36 37 33 26 22 22 23 24 24 22 21 19 17 16 17 24 21
6 10 4 7 13 25 39 24 52 36 53 53 50 35 19 31 60 50 28 45 20 31 24 23 31 31 32 34 37 37 36 37 39 35 30 25 23 24 23 22 21 19 17 14 13 13 14 23 24
18 1 15 23 39 25 4 34 40 36 34 31 48 13 33 45 50 40 41 48 39 26 17 21 30 32 33 36 37 37 38 40 39 34 29 26 25 23 21 20 17 16 15 14 15 18 21 27 29
33 6 13 18 30 44 32 41 50 39 27 48 18 14 24 53 48 40 43 47 31 19 5 24 31 33 36 38 38 39 40 40 38 33 30 27 24 22 19 18 16 14 15 19 24 35 33 35 36
48 7 21 13 29 34 34 17 35 40 43 34 23 44 62 53 49 46 53 38 28 22 9 23 33 34 36 38 40 41 41 40 37 34 31 28 26 20 18 14 16 13 17 25 49 53 51 44 35
20 7 19 26 35 12 13 37 26 31 50 51 57 62 59 55 48 49 52 45 30 28 16 7 26 35 39 39 40 41 40 38 35 33 32 35 27 23 12 14 15 13 20 33 40 38 35 35 35
36 21 26 5 20 18 6 20 7 27 22 59 68 64 56 58 49 49 45 42 35 30 23 12 13 28 35 38 41 41 40 38 36 33 36 31 21 24 16 10 16 15 27 29 27 26 24 23 15
12 46 45 16 19 6 5 22 15 3 48 61 65 61 63 58 53 51 47 48 45 41 29 27 19 25 26 31 38 39 38 36 36 41 39 34 24 21 15 10 7 18 26 17 17 21 25 27 28
13 26 41 33 22 16 11 6 13 5 72 67 67 62 58 53 49 47 45 48 48 47 41 40 33 33 33 22 30 34 34 33 34 38 38 32 27 23 22 16 19 18 19 10 6 20 20 15 14
50 40 22 29 19 20 18 16 14 26 72 74 69 60 53 50 47 49 48 52 54 49 48 46 41 50 47 31 24 34 32 26 27 32 34 32 26 33 26 11 18 20 14 7 12 17 13 18 20
49 14 18 27 29 19 32 5 8 22 76 75 67 62 53 55 48 52 49 53 55 53 55 53 50 54 54 42 31 32 22 22 20 18 15 31 33 25 35 26 24 24 18 17 19 18 19 15 23
17 9 10 21 27 50 16 13 15 26 74 69 73 71 68 65 56 58 51 52 56 56 60 61 59 63 54 51 41 35 31 32 29 30 31 25 31 26 16 23 22 29 36 31 26 21 24 21 16
13 11 18 24 43 18 12 11 22 28 65 62 69 76 77 73 63 65 63 61 61 59 63 67 67 59 68 59 55 54 49 46 46 40 41 40 33 32 34 30 41 34 31 42 38 30 25 28 24
20 9 15 18 20 19 18 13 4 10 14 12 47 71 81 83 80 76 72 70 66 64 64 62 68 60 60 59 63 64 60 52 48 44 48 39 40 32 46 38 33 31 26 31 33 35 39 37 32
19 16 16 15 17 15 12 7 5 9 12 16 46 67 76 91 85 78 74 72 69 66 65 65 67 60 57 59 66 67 69 61 59 54 49 52 45 42 36 49 47 43 35 35 36 44 43 43 43
15 8 16 19 16 9 14 14 10 16 20 29 19 39 34 72 83 84 81 77 74 73 68 65 64 65 60 59 55 62 65 66 61 63 58 50 56 54 55 49 56 55 46 41 42 49 52 50 48
6 9 14 16 16 16 12 18 16 20 34 34 36 5 26 29 86 89 89 82 75 74 72 68 69 64 68 59 57 59 56 59 66 65 66 61 57 62 60 55 59 61 56 50 50 43 53 60 63
6 18 23 19 5 7 8 10 18 17 21 13 31 30 73 65 62 56 60 77 75 73 65 63 57 62 59 69 73 67 69 73 71 66 66 64 66 63 63 62 63 65 67 59 50 46 56 57 71
17 10 11 11 9 10 18 6 19 14 14 15 29 65 79 91 77 59 44 40 42 48 62 62 64 59 59 62 64 78 81 78 70 72 67 68 67 78 76 80 77 76 74 66 64 60 59 64 63
12 10 9 9 4 8 16 11 17 14 29 23 40 64 70 71 75 63 50 39 37 34 26 34 72 75 70 68 72 82 82 84 80 79 77 77 70 76 87 92 93 91 86 80 76 71 69 61 67
7 9 7 8 3 10 14 2 15 21 31 36 38 60 64 62 64 68 60 49 45 35 24 32 30 21 63 77 71 68 71 86 88 83 81 80 85 83 92 96 102 100 91 86 82 87 82 74 69
15 18 10 5 1 3 13 9 7 40 55 63 70 69 68 61 52 52 59 53 48 45 36 30 41 36 31 1 27 50 52 57 67 79 88 90 86 90 98 94 107 115 105 95 87 100 96 94 80
9 7 22 3 6 9 4 21 27 34 28 45 51 63 60 61 56 48 43 45 47 40 40 30 31 32 21 16 9 19 20 21 49 63 73 81 85 98 91 96 98 109 113 107 105 100 109 109 95
2 5 10 8 3 5 7 9 12 25 28 25 29 50 53 48 51 47 40 37 34 35 34 31 19 30 31 26 25 24 22 19 21 32 45 61 66 69 78 96 92 92 104 110 115 117 112 120 114
12 4 3 7 8 5 4 6 4 19 27 27 38 44 38 38 34 32 28 30 27 25 30 33 36 30 41 46 47 42 42 40 38 34 30 34 57 66 71 78 86 99 102 102 107 122 120 120 121
11 3 10 9 10 3 7 8 15 25 32 48 42 33 29 26 24 15 14 12 11 14 18 21 26 26 40 44 50 57 50 48 49 47 48 43 44 51 60 70 76 90 102 98 107 114 115 113 122
Wind_Direction_500mb
83 74 83 59 64 80 252 277 171 82 55 62 71 84 85 61 95 138 154 170 156 161 156 156 153 150 145 141 139 138 139 141 140 135 132 129 122 117 114 113 113 114 115 113 110 103 97 92 77
130 79 16 108 60 2 276 206 80 97 117 107 83 84 70 67 101 132 138 158 151 158 157 157 155 153 149 146 142 142 145 147 145 141 139 134 126 120 115 113 115 117 118 117 115 107 98 88 72
148 96 317 76 21 247 252 130 142 152 136 110 91 70 58 119 125 144 158 152 148 160 157 157 155 155 153 151 149 148 150 150 148 145 143 137 129 120 113 112 114 117 119 118 114 105 95 86 76
135 169 75 65 264 265 296 317 149 103 91 103 95 81 66 135 128 146 149 150 154 154 154 156 155 157 157 156 154 153 152 153 150 148 146 139 128 117 112 112 111 109 109 107 103 95 88 91 89
164 240 183 209 282 299 283 262 130 102 110 110 105 114 92 101 134 139 134 142 153 136 148 152 156 159 160 161 158 155 155 153 151 150 148 138 125 116 113 109 108 108 105 103 98 91 88 95 98
236 262 73 142 167 280 266 238 84 79 108 109 105 109 99 131 143 140 130 156 147 138 134 158 160 162 164 164 161 158 155 154 154 152 147 135 125 121 118 115 112 109 104 96 86 79 80 99 111
232 243 249 63 34 288 294 118 96 87 67 117 138 107 133 141 148 149 164 167 162 166 175 186 173 168 169 168 164 159 158 158 157 153 145 135 130 126 122 120 117 110 97 85 77 77 84 112 119
237 198 291 108 165 265 265 93 105 110 105 124 140 138 159 153 152 149 163 165 161 157 162 185 177 173 172 169 166 163 162 161 159 153 144 137 132 127 125 119 115 104 92 88 83 82 91 110 114
255 245 258 155 191 241 263 111 120 129 104 88 112 145 152 152 154 155 152 155 151 157 155 182 177 173 171 170 168 167 166 164 159 153 144 134 125 114 108 110 107 96 95 99 106 96 104 109 113
209 202 245 202 190 240 240 145 155 130 114 102 103 131 144 151 159 164 162 153 164 166 157 122 168 170 169 172 172 170 168 165 160 153 141 132 123 104 107 112 117 104 110 109 116 109 104 106 109
254 239 257 37 143 12 22 105 35 126 129 141 136 141 150 159 166 168 172 174 176 182 164 182 146 169 159 171 172 172 170 170 163 153 147 142 133 158 180 154 133 117 125 116 107 99 86 62 137
253 255 262 145 120 303 40 28 8 276 157 157 150 149 155 165 171 173 179 182 172 181 183 182 172 174 161 168 177 177 176 173 167 157 151 152 163 166 206 235 198 119 131 127 102 115 104 83 79
277 259 271 293 147 212 135 219 214 90 147 151 147 146 159 168 175 179 184 183 179 178 187 185 178 183 181 176 186 184 179 180 171 168 161 161 171 197 229 246 182 156 128 120 121 140 126 108 133
291 296 282 317 320 238 171 216 223 173 146 144 146 150 163 173 182 183 187 185 184 180 185 188 182 184 199 200 202 183 172 166 174 172 173 168 182 191 190 188 171 159 139 106 187 162 148 159 177
318 324 324 318 300 292 274 261 288 170 147 148 151 156 169 175 180 190 190 189 190 186 184 195 186 187 203 203 211 179 175 172 186 201 201 198 180 202 176 178 165 156 160 177 185 198 155 198 196
325 349 18 281 269 259 237 245 264 275 152 160 163 166 175 182 182 188 190 194 195 191 189 197 199 192 192 204 200 187 200 208 202 217 226 213 191 204 187 209 179 184 199 190 201 185 173 195 220
304 248 244 265 259 249 142 205 246 313 161 172 174 176 181 183 184 191 189 193 197 202 196 196 206 204 199 203 197 189 198 203 205 214 226 229 227 217 208 216 193 210 205 201 202 196 185 202 214
254 257 267 247 273 263 187 196 231 247 180 229 218 180 181 185 191 192 190 192 199 204 203 202 208 213 210 209 206 198 197 201 208 210 219 224 231 238 218 208 218 231 214 206 203 194 197 203 209
250 265 270 300 328 23 0 329 258 278 281 240 230 193 183 190 192 193 193 192 195 201 200 203 208 214 213 219 212 209 206 205 208 211 213 229 236 237 239 212 212 227 223 218 204 205 203 200 209
262 339 321 316 319 347 310 295 273 296 268 278 295 198 206 194 185 192 193 191 194 200 204 206 209 216 221 225 229 224 218 217 222 213 213 219 233 237 238 230 223 227 228 225 220 212 212 208 203
6 312 300 273 305 335 353 331 305 273 252 248 267 256 60 148 185 192 191 192 194 200 205 210 213 217 224 227 234 236 237 232 228 227 222 219 229 238 241 238 225 234 233 232 233 229 221 217 207
282 246 245 252 332 284 69 280 284 251 236 234 252 91 74 66 174 182 183 190 200 206 210 214 218 221 225 230 230 234 237 237 237 237 237 231 227 239 239 235 237 235 240 234 234 244 230 223 217
233 280 5 2 6 24 315 19 276 306 196 226 92 90 88 86 84 91 172 150 203 213 213 225 229 228 230 230 240 241 241 246 244 239 238 242 241 234 238 240 238 240 241 238 235 238 240 233 228
279 7 352 345 25 334 249 180 284 273 103 94 83 94 93 93 88 83 93 113 93 105 97 235 237 233 231 239 237 240 247 248 247 244 239 235 239 243 239 240 242 244 246 242 236 236 244 245 237
137 55 347 335 10 211 266 8 220 97 102 111 96 84 90 93 90 85 82 75 68 63 84 73 71 242 247 244 247 250 251 251 250 253 248 244 240 241 241 240 239 242 247 249 240 238 241 243 240
182 158 168 239 220 231 296 47 30 76 65 70 74 79 81 83 84 83 75 73 74 74 73 78 68 68 64 204 286 273 278 280 275 265 259 252 250 247 249 250 246 243 245 247 247 239 238 242 240
299 159 222 162 296 44 142 76 57 76 75 73 72 73 73 76 81 80 72 70 66 61 62 72 63 42 29 18 348 67 48 342 279 272 273 271 264 252 251 254 256 250 246 248 248 244 239 241 240
220 244 21 358 117 261 315 149 160 117 110 92 75 66 66 71 67 73 68 60 50 40 30 28 29 15 353 330 316 318 293 297 313 323 276 272 272 271 264 252 255 256 253 250 248 247 245 241 242
329 272 341 128 129 177 344 320 354 113 108 99 82 71 62 57 59 51 51 41 36 29 27 20 15 8 345 331 322 316 311 304 298 301 302 291 274 273 268 261 258 263 262 254 251 249 250 246 245
309 345 120 109 304 5 134 284 112 103 106 103 97 90 85 64 62 46 51 30 13 10 5 349 340 345 338 331 328 323 315 311 310 308 287 287 282 270 274 272 266 260 262 264 256 254 255 256 250
Wind_Speed_850mb
9 13 9 5 7 8 8 16 13 20 18 40 52 46 31 26 11 13 54 47 36 45 48 43 37 33 30 30 32 32 31 28 27 28 31 32 31 29 28 27 26 25 23 22 21 21 22 24 22
21 14 9 6 8 6 11 12 22 16 25 29 50 61 50 28 46 61 58 41 35 37 48 44 38 32 30 30 32 33 32 30 28 30 33 32 30 26 25 23 22 21 20 19 18 18 18 19 19
19 8 8 8 4 7 9 14 17 21 28 45 15 41 16 34 48 25 39 37 28 42 46 43 38 32 31 31 33 35 33 32 31 32 35 32 27 23 21 21 20 19 18 17 16 15 14 19 19
18 11 6 6 15 23 19 25 17 19 32 53 51 18 35 33 36 45 48 34 22 49 47 42 38 34 32 33 35 36 35 33 33 36 35 29 23 22 21 22 23 22 20 19 17 16 17 22 20
12 10 6 5 21 27 30 44 32 17 40 60 51 16 18 33 47 50 35 17 24 44 36 37 36 34 33 34 36 37 36 35 36 37 33 26 22 22 23 24 24 22 21 19 17 16 17 24 21
6 10 4 7 13 25 39 24 52 36 53 53 50 35 19 31 60 50 28 45 20 31 24 23 31 31 32 34 37 37 36 37 39 35 30 25 23 24 23 22 21 19 17 14 13 13 14 23 24
18 1 15 23 39 25 4 34 40 36 34 31 48 13 33 45 50 40 41 48 39 26 17 21 30 32 33 36 37 37 38 40 39 34 29 26 25 23 21 20 17 16 15 14 15 18 21 27 29
33 6 13 18 30 44 32 41 50 39 27 48 18 14 24 53 48 40 43 47 31 19 5 24 31 33 36 38 38 39 40 40 38 33 30 27 24 22 19 18 16 14 15 19 24 35 33 35 36
48 7 21 13 29 34 34 17 35 40 43 34 23 44 62 53 49 46 53 38 28 22 9 23 33 34 36 38 40 41 41 40 37 34 31 28 26 20 18 14 16 13 17 25 49 53 51 44 35
20 7 19 26 35 12 13 37 26 31 50 51 57 62 59 55 48 49 52 45 30 28 16 7 26 35 39 39 40 41 40 38 35 33 32 35 27 23 12 14 15 13 20 33 40 38 35 35 35
36 21 26 5 20 18 6 20 7 27 22 59 68 64 56 58 49 49 45 42 35 30 23 12 13 28 35 38 41 41 40 38 36 33 36 31 21 24 16 10 16 15 27 29 27 26 24 23 15
12 46 45 16 19 6 5 22 15 3 48 61 65 61 63 58 53 51 47 48 45 41 29 27 19 25 26 31 38 39 38 36 36 41 39 34 24 21 15 10 7 18 26 17 17 21 25 27 28
13 26 41 33 22 16 11 6 13 5 72 67 67 62 58 53 49 47 45 48 48 47 41 40 33 33 33 22 30 34 34 33 34 38 38 32 27 23 22 16 19 18 19 10 6 20 20 15 14
50 40 22 29 19 20 18 16 14 26 72 74 69 60 53 50 47 49 48 52 54 49 48 46 41 50 47 31 24 34 32 26 27 32 34 32 26 33 26 11 18 20 14 7 12 17 13 18 20
49 14 18 27 29 19 32 5 8 22 76 75 67 62 53 55 48 52 49 53 55 53 55 53 50 54 54 42 31 32 22 22 20 18 15 31 33 25 35 26 24 24 18 17 19 18 19 15 23
17 9 10 21 27 50 16 13 15 26 74 69 73 71 68 65 56 58 51 52 56 56 60 61 59 63 54 51 41 35 31 32 29 30 31 25 31 26 16 23 22 29 36 31 26 21 24 21 16
13 11 18 24 43 18 12 11 22 28 65 62 69 76 77 73 63 65 63 61 61 59 63 67 67 59 68 59 55 54 49 46 46 40 41 40 33 32 34 30 41 34 31 42 38 30 25 28 24
20 9 15 18 20 19 18 13 4 10 14 12 47 71 81 83 80 76 72 70 66 64 64 62 68 60 60 59 63 64 60 52 48 44 48 39 40 32 46 38 33 31 26 31 33 35 39 37 32
19 16 16 15 17 15 12 7 5 9 12 16 46 67 76 91 85 78 74 72 69 66 65 65 67 60 57 59 66 67 69 61 59 54 49 52 45 42 36 49 47 43 35 35 36 44 43 43 43
15 8 16 19 16 9 14 14 10 16 20 29 19 39 34 72 83 84 81 77 74 73 68 65 64 65 60 59 55 62 65 66 61 63 58 50 56 54 55 49 56 55 46 41 42 49 52 50 48
6 9 14 16 16 16 12 18 16 20 34 34 36 5 26 29 86 89 89 82 75 74 72 68 69 64 68 59 57 59 56 59 66 65 66 61 57 62 60 55 59 61 56 50 50 43 53 60 63
6 18 23 19 5 7 8 10 18 17 21 13 31 30 73 65 62 56 60 77 75 73 65 63 57 62 59 69 73 67 69 73 71 66 66 64 66 63 63 62 63 65 67 59 50 46 56 57 71
17 10 11 11 9 10 18 6 19 14 14 15 29 65 79 91 77 59 44 40 42 48 62 62 64 59 59 62 64 78 81 78 70 72 67 68 67 78 76 80 77 76 74 66 64 60 59 64 63
12 10 9 9 4 8 16 11 17 14 29 23 40 64 70 71 75 63 50 39 37 34 26 34 72 75 70 68 72 82 82 84 80 79 77 77 70 76 87 92 93 91 86 80 76 71 69 61 67
7 9 7 8 3 10 14 2 15 21 31 36 38 60 64 62 64 68 60 49 45 35 24 32 30 21 63 77 71 68 71 86 88 83 81 80 85 83 92 96 102 100 91 86 82 87 82 74 69
15 18 10 5 1 3 13 9 7 40 55 63 70 69 68 61 52 52 59 53 48 45 36 30 41 36 31 1 27 50 52 57 67 79 88 90 86 90 98 94 107 115 105 95 87 100 96 94 80
9 7 22 3 6 9 4 21 27 34 28 45 51 63 60 61 56 48 43 45 47 40 40 30 31 32 21 16 9 19 20 21 49 63 73 81 85 98 91 96 98 109 113 107 105 100 109 109 95
2 5 10 8 3 5 7 9 12 25 28 25 29 50 53 48 51 47 40 37 34 35 34 31 19 30 31 26 25 24 22 19 21 32 45 61 66 69 78 96 92 92 104 110 115 117 112 120 114
12 4 3 7 8 5 4 6 4 19 27 27 38 44 38 38 34 32 28 30 27 25 30 33 36 30 41 46 47 42 42 40 38 34 30 34 57 66 71 78 86 99 102 102 107 122 120 120 121
11 3 10 9 10 3 7 8 15 25 32 48 42 33 29 26 24 15 14 12 11 14 18 21 26 26 40 44 50 57 50 48 49 47 48 43 44 51 60 70 76 90 102 98 107 114 115 113 122
Wind_Direction_850mb
83 74 83 59 64 80 252 277 171 82 55 62 71 84 85 61 95 138 154 170 156 161 156 156 153 150 145 141 139 138 139 141 140 135 132 129 122 117 114 113 113 114 115 113 110 103 97 92 77
130 79 16 108 60 2 276 206 80 97 117 107 83 84 70 67 101 132 138 158 151 158 157 157 155 153 149 146 142 142 145 147 145 141 139 134 126 120 115 113 115 117 118 117 115 107 98 88 72
148 96 317 76 21 247 252 130 142 152 136 110 91 70 58 119 125 144 158 152 148 160 157 157 155 155 153 151 149 148 150 150 148 145 143 137 129 120 113 112 114 117 119 118 114 105 95 86 76
135 169 75 65 264 265 296 317 149 103 91 103 95 81 66 135 128 146 149 150 154 154 154 156 155 157 157 156 154 153 152 153 150 148 146 139 128 117 112 112 111 109 109 107 103 95 88 91 89
164 240 183 209 282 299 283 262 130 102 110 110 105 114 92 101 134 139 134 142 153 136 148 152 156 159 160 161 158 155 155 153 151 150 148 138 125 116 113 109 108 108 105 103 98 91 88 95 98
236 262 73 142 167 280 266 238 84 79 108 109 105 109 99 131 143 140 130 156 147 138 134 158 160 162 164 164 161 158 155 154 154 152 147 135 125 121 118 115 112 109 104 96 86 79 80 99 111
232 243 249 63 34 288 294 118 96 87 67 117 138 107 133 141 148 149 164 167 162 166 175 186 173 168 169 168 164 159 158 158 157 153 145 135 130 126 122 120 117 110 97 85 77 77 84 112 119
237 198 291 108 165 265 265 93 105 110 105 124 140 138 159 153 152 149 163 165 161 157 162 185 177 173 172 169 166 163 162 161 159 153 144 137 132 127 125 119 115 104 92 88 83 82 91 110 114
255 245 258 155 191 241 263 111 120 129 104 88 112 145 152 152 154 155 152 155 151 157 155 182 177 173 171 170 168 167 166 164 159 153 144 134 125 114 108 110 107 96 95 99 106 96 104 109 113
209 202 245 202 190 240 240 145 155 130 114 102 103 131 144 151 159 164 162 153 164 166 157 122 168 170 169 172 172 170 168 165 160 153 141 132 123 104 107 112 117 104 110 109 116 109 104 106 109
254 239 257 37 143 12 22 105 35 126 129 141 136 141 150 159 166 168 172 174 176 182 164 182 146 169 159 171 172 172 170 170 163 153 147 142 133 158 180 154 133 117 125 116 107 99 86 62 137
253 255 262 145 120 303 40 28 8 276 157 157 150 149 155 165 171 173 179 182 172 181 183 182 172 174 161 168 177 177 176 173 167 157 151 152 163 166 206 235 198 119 131 127 102 115 104 83 79
277 259 271 293 147 212 135 219 214 90 147 151 147 146 159 168 175 179 184 183 179 178 187 185 178 183 181 176 186 184 179 180 171 168 161 161 171 197 229 246 182 156 128 120 121 140 126 108 133
291 296 282 317 320 238 171 216 223 173 146 144 146 150 163 173 182 183 187 185 184 180 185 188 182 184 199 200 202 183 172 166 174 172 173 168 182 191 190 188 171 159 139 106 187 162 148 159 177
318 324 324 318 300 292 274 261 288 170 147 148 151 156 169 175 180 190 190 189 190 186 184 195 186 187 203 203 211 179 175 172 186 201 201 198 180 202 176 178 165 156 160 177 185 198 155 198 196
325 349 18 281 269 259 237 245 264 275 152 160 163 166 175 182 182 188 190 194 195 191 189 197 199 192 192 204 200 187 200 208 202 217 226 213 191 204 187 209 179 184 199 190 201 185 173 195 220
304 248 244 265 259 249 142 205 246 313 161 172 174 176 181 183 184 191 189 193 197 202 196 196 206 204 199 203 197 189 198 203 205 214 226 229 227 217 208 216 193 210 205 201 202 196 185 202 214
254 257 267 247 273 263 187 196 231 247 180 229 218 180 181 185 191 192 190 192 199 204 203 202 208 213 210 209 206 198 197 201 208 210 219 224 231 238 218 208 218 231 214 206 203 194 197 203 209
250 265 270 300 328 23 0 329 258 278 281 240 230 193 183 190 192 193 193 192 195 201 200 203 208 214 213 219 212 209 206 205 208 211 213 229 236 237 239 212 212 227 223 218 204 205 203 200 209
262 339 321 316 319 347 310 295 273 296 268 278 295 198 206 194 185 192 193 191 194 200 204 206 209 216 221 225 229 224 218 217 222 213 213 219 233 237 238 230 223 227 228 225 220 212 212 208 203
6 312 300 273 305 335 353 331 305 273 252 248 267 256 60 148 185 192 191 192 194 200 205 210 213 217 224 227 234 236 237 232 228 227 222 219 229 238 241 238 225 234 233 232 233 229 221 217 207
282 246 245 252 332 284 69 280 284 251 236 234 252 91 74 66 174 182 183 190 200 206 210 214 218 221 225 230 230 234 237 237 237 237 237 231 227 239 239 235 237 235 240 234 234 244 230 223 217
233 280 5 2 6 24 315 19 276 306 196 226 92 90 88 86 84 91 172 150 203 213 213 225 229 228 230 230 240 241 241 246 244 239 238 242 241 234 238 240 238 240 241 238 235 238 240 233 228
279 7 352 345 25 334 249 180 284 273 103 94 83 94 93 93 88 83 93 113 93 105 97 235 237 233 231 239 237 240 247 248 247 244 239 235 239 243 239 240 242 244 246 242 236 236 244 245 237
137 55 347 335 10 211 266 8 220 97 102 111 96 84 90 93 90 85 82 75 68 63 84 73 71 242 247 244 247 250 251 251 250 253 248 244 240 241 241 240 239 242 247 249 240 238 241 243 240
182 158 168 239 220 231 296 47 30 76 65 70 74 79 81 83 84 83 75 73 74 74 73 78 68 68 64 204 286 273 278 280 275 265 259 252 250 247 249 250 246 243 245 247 247 239 238 242 240
299 159 222 162 296 44 142 76 57 76 75 73 72 73 73 76 81 80 72 70 66 61 62 72 63 42 29 18 348 67 48 342 279 272 273 271 264 252 251 254 256 250 246 248 248 244 239 241 240
220 244 21 358 117 261 315 149 160 117 110 92 75 66 66 71 67 73 68 60 50 40 30 28 29 15 353 330 316 318 293 297 313 323 276 272 272 271 264 252 255 256 253 250 248 247 245 241 242
329 272 341 128 129 177 344 320 354 113 108 99 82 71 62 57 59 51 51 41 36 29 27 20 15 8 345 331 322 316 311 304 298 301 302 291 274 273 268 261 258 263 262 254 251 249 250 246 245
309 345 120 109 304 5 134 284 112 103 106 103 97 90 85 64 62 46 51 30 13 10 5 349 340 345 338 331 328 323 315 311 310 308 287 287 282 270 274 272 266 260 262 264 256 254 255 256 250